Location: Unspecified
(48.5539°N, 71.6350°W)
Time: 00:49:10
(UTC-04:00)

ISS - Pass Details

Date: 30 January 2019
Orbit: 411 x 421 km, 51.6° (Epoch: 16 October)

Event Time Altitude Azimuth Distance (km) Brightness Sun altitude
Rises 20:55:49 0° 291° (WNW) 2,378 - -41.6°
Reaches altitude 10° 20:57:57 10° 286° (WNW) 1,511 - -41.9°
Maximum altitude 21:01:14 49° 210° (SSW) 556 - -42.4°
Drops below altitude 10° 21:04:30 10° 135° (SE) 1,502 - -42.9°
Sets 21:06:38 0° 130° (SE) 2,362 - -43.2°
